Regional Weather Roundup
Issued by NWS

Home | Current Version | Previous Version | Text Only | Print | Product List | Glossary On
Versions: 1 2 3 4 5 6 7 8 9 10 11 12 13 14 15 16 17 18 19 20 21 22 23 24 25 26 27 28 29
000
ASUS45 KCYS 252210
RWRWY

WYOMING REGIONAL WEATHER ROUNDUP
NATIONAL WEATHER SERVICE CHEYENNE WY
400 PM MDT SAT OCT 25 2014

NOTE:  "FAIR" INDICATES FEW OR NO CLOUDS BELOW 12,000 FEET
WITH NO SIGNIFICANT WEATHER AND/OR OBSTRUCTIONS TO VISIBILITY.

WYZ001-252300-
YELLOWSTONE NATIONAL PARK

CITY           SKY/WX    TMP DP  RH WIND       PRES   REMARKS
LK YELLOWSTONE   N/A     61  23  23 VRB3      30.07
W YELLOWSTONE  NOT AVBL

$$
WYZ002>013-054>058-071-098>099-252300-
NORTHERN WYOMING

CITY           SKY/WX    TMP DP  RH WIND       PRES   REMARKS
JACKSON        SUNNY     70  21  16 S23       30.00F
CODY           SUNNY     73  27  17 E10       29.88
GREYBULL       SUNNY     80  24  12 SE16G22   29.83F
WORLAND        SUNNY     81  21  11 S17G26    29.86F
SHERIDAN       SUNNY     73  35  25 NW7       29.85F
BUFFALO        SUNNY     79  16   9 S16       29.91F
GILLETTE       SUNNY     72  35  25 SE22      29.94F
HULETT         FAIR      73  28  19 SW5       29.97
NEWCASTLE      FAIR      68  32  26 MISG      30.00

$$
WYZ014>020-022>026-101>103-252300-
CENTRAL WYOMING

CITY           SKY/WX    TMP DP  RH WIND       PRES   REMARKS
BIG PINEY      LGT RAIN  69  22  16 SW18G25   30.09F
PINEDALE       CLEAR     64  21  19 S15       30.10
DUBOIS         FAIR      64  16  15 W14G28    30.04F
LANDER         SUNNY     75  24  15 E8        29.95F
RIVERTON       SUNNY     71  23  16 S6        29.98F
CASPER         SUNNY     76  21  12 SW24      30.01F
DOUGLAS        SUNNY     81  19  10 SW10      30.01F

$$
WYZ021-027>030-104>119-252300-
SOUTHERN WYOMING

CITY           SKY/WX    TMP DP  RH WIND       PRES   REMARKS
EVANSTON       PTSUNNY   69  19  15 SW32G41   30.09F
KEMMERER       PTCLDY   N/A N/A N/A S9G17     30.12S
FORT BRIDGER   FAIR      70  20  15 CALM      30.13F
ROCK SPRINGS   SUNNY     69  28  21 S20G28    30.09F
RAWLINS        SUNNY     69  25  19 SW22G33   30.14F
SARATOGA       FAIR      70  21  16 SW20      30.18F
LARAMIE        SUNNY     71  14  11 SW18G25   30.17F
CHEYENNE       SUNNY     73  19  13 S16       30.14F
TORRINGTON     SUNNY     80  34  19 SE10      30.00F
PINE BLUFFS    FAIR      77  21  12 SW9       30.09F

$$



USA.gov is the U.S. government's official web portal to all federal, state and local government web resources and services.